Time,TemperatureF,DewpointF,PressureIn,WindDirection,WindDirectionDegrees,WindSpeedMPH,WindSpeedGustMPH,Humidity,HourlyPrecipIn,Conditions,Clouds,dailyrainin,SoftwareType,DateUTC
2013-01-19 00:04:00,40.0,-99.9,30.41,WSW,239,28.0,37.0,-999,-99.99,,,-99.99,,2013-01-19 05:04:00,
2013-01-19 00:13:00,40.0,-99.9,29.72,WSW,239,28.0,37.0,-999,-99.99,,,-99.99,,2013-01-19 05:13:00,
2013-01-19 00:23:00,40.0,-99.9,29.72,WSW,239,28.0,37.0,-999,-99.99,,,-99.99,,2013-01-19 05:23:00,
2013-01-19 00:33:00,39.0,-99.9,30.40,WSW,243,29.0,0.0,-999,-99.99,,,-99.99,,2013-01-19 05:33:00,
2013-01-19 00:43:00,39.0,-99.9,29.71,WSW,243,29.0,0.0,-999,-99.99,,,-99.99,,2013-01-19 05:43:00,
2013-01-19 00:53:00,39.0,-99.9,29.71,WSW,243,29.0,0.0,-999,-99.99,,,-99.99,,2013-01-19 05:53:00,
2013-01-19 01:03:00,39.0,-99.9,30.41,WSW,250,28.0,33.0,-999,-99.99,,,-99.99,,2013-01-19 06:03:00,
2013-01-19 01:12:00,39.0,-99.9,29.72,WSW,250,28.0,33.0,-999,-99.99,,,-99.99,,2013-01-19 06:12:00,
2013-01-19 01:23:00,38.0,-99.9,30.41,WSW,250,26.0,0.0,-999,-99.99,,,-99.99,,2013-01-19 06:23:00,
2013-01-19 01:33:00,38.0,-99.9,30.41,WSW,250,26.0,0.0,-999,-99.99,,,-99.99,,2013-01-19 06:33:00,
2013-01-19 01:43:00,38.0,-99.9,29.72,WSW,250,26.0,0.0,-999,-99.99,,,-99.99,,2013-01-19 06:43:00,
2013-01-19 01:53:00,38.0,-99.9,30.41,WSW,250,26.0,0.0,-999,-99.99,,,-99.99,,2013-01-19 06:53:00,
2013-01-19 02:02:00,33.0,-99.9,29.72,NNE,20,14.0,17.0,-999,-99.99,,,-99.99,,2013-01-19 07:02:00,
2013-01-19 02:12:00,33.0,-99.9,29.73,NNE,20,14.0,17.0,-999,-99.99,,,-99.99,,2013-01-19 07:12:00,
2013-01-19 02:23:00,33.0,-99.9,29.73,NNE,20,14.0,17.0,-999,-99.99,,,-99.99,,2013-01-19 07:23:00,
2013-01-19 02:33:00,32.0,-99.9,30.44,NNE,25,12.0,16.0,-999,-99.99,,,-99.99,,2013-01-19 07:33:00,
2013-01-19 02:43:00,32.0,-99.9,29.75,NNE,25,12.0,16.0,-999,-99.99,,,-99.99,,2013-01-19 07:43:00,
2013-01-19 02:53:00,32.0,-99.9,29.75,NNE,25,12.0,16.0,-999,-99.99,,,-99.99,,2013-01-19 07:53:00,
2013-01-19 03:03:00,32.0,-99.9,29.75,NNE,19,12.0,13.0,-999,-99.99,,,-99.99,,2013-01-19 08:03:00,
2013-01-19 03:12:00,32.0,-99.9,29.76,NNE,19,12.0,13.0,-999,-99.99,,,-99.99,,2013-01-19 08:12:00,
2013-01-19 03:22:00,32.0,-99.9,29.75,NNE,25,12.0,16.0,-999,-99.99,,,-99.99,,2013-01-19 08:22:00,
2013-01-19 03:33:00,31.0,-99.9,30.46,NNE,26,7.0,13.0,-999,-99.99,,,-99.99,,2013-01-19 08:33:00,
2013-01-19 03:43:00,31.0,-99.9,30.46,NNE,26,7.0,13.0,-999,-99.99,,,-99.99,,2013-01-19 08:43:00,
2013-01-19 03:53:00,31.0,-99.9,29.77,NNE,26,7.0,13.0,-999,-99.99,,,-99.99,,2013-01-19 08:53:00,
2013-01-19 04:02:00,31.0,-99.9,30.46,NNE,23,8.0,9.0,-999,-99.99,,,-99.99,,2013-01-19 09:02:00,
2013-01-19 04:12:00,31.0,-99.9,29.77,NNE,23,8.0,9.0,-999,-99.99,,,-99.99,,2013-01-19 09:12:00,
2013-01-19 04:23:00,31.0,-99.9,30.46,NNE,26,7.0,13.0,-999,-99.99,,,-99.99,,2013-01-19 09:23:00,
2013-01-19 04:33:00,31.0,-99.9,29.77,NNE,26,7.0,13.0,-999,-99.99,,,-99.99,,2013-01-19 09:33:00,
2013-01-19 04:43:00,31.0,-99.9,29.77,NNE,26,7.0,13.0,-999,-99.99,,,-99.99,,2013-01-19 09:43:00,
2013-01-19 04:53:00,31.0,-99.9,30.47,NW,324,6.0,11.0,-999,-99.99,,,-99.99,,2013-01-19 09:53:00,
2013-01-19 05:02:00,31.0,-99.9,30.46,North,357,3.0,6.0,-999,-99.99,,,-99.99,,2013-01-19 10:02:00,
2013-01-19 05:13:00,31.0,-99.9,29.77,North,357,3.0,6.0,-999,-99.99,,,-99.99,,2013-01-19 10:13:00,
2013-01-19 05:23:00,31.0,-99.9,29.77,North,357,3.0,6.0,-999,-99.99,,,-99.99,,2013-01-19 10:23:00,
2013-01-19 05:33:00,31.0,-99.9,30.47,WNW,302,5.0,8.0,-999,-99.99,,,-99.99,,2013-01-19 10:33:00,
2013-01-19 05:43:00,31.0,-99.9,29.78,WNW,302,5.0,8.0,-999,-99.99,,,-99.99,,2013-01-19 10:43:00,
2013-01-19 05:53:00,31.0,-99.9,30.47,WNW,302,5.0,8.0,-999,-99.99,,,-99.99,,2013-01-19 10:53:00,
2013-01-19 06:03:00,32.0,-99.9,30.47,NW,313,8.0,10.0,-999,-99.99,,,-99.99,,2013-01-19 11:03:00,
2013-01-19 06:13:00,32.0,-99.9,29.78,NW,313,8.0,10.0,-999,-99.99,,,-99.99,,2013-01-19 11:13:00,
2013-01-19 06:40:00,32.0,-99.9,29.81,WNW,287,14.0,16.0,-999,-99.99,,,-99.99,,2013-01-19 11:40:00,
2013-01-19 07:48:00,32.0,-99.9,30.50,WNW,288,14.0,18.0,-999,-99.99,,,-99.99,,2013-01-19 12:48:00,
2013-01-19 07:53:00,32.0,-99.9,29.81,WNW,288,14.0,18.0,-999,-99.99,,,-99.99,,2013-01-19 12:53:00,
2013-01-19 08:03:00,32.0,-99.9,29.81,WNW,290,12.0,16.0,-999,-99.99,,,-99.99,,2013-01-19 13:03:00,
2013-01-19 08:13:00,32.0,-99.9,29.81,WNW,290,12.0,16.0,-999,-99.99,,,-99.99,,2013-01-19 13:13:00,
2013-01-19 08:23:00,32.0,-99.9,29.81,WNW,290,12.0,16.0,-999,-99.99,,,-99.99,,2013-01-19 13:23:00,
2013-01-19 08:34:00,32.0,-99.9,30.50,WNW,288,14.0,18.0,-999,-99.99,,,-99.99,,2013-01-19 13:34:00,
2013-01-19 08:43:00,32.0,-99.9,29.81,WNW,288,14.0,18.0,-999,-99.99,,,-99.99,,2013-01-19 13:43:00,
2013-01-19 08:54:00,32.0,-99.9,30.50,WNW,295,10.0,16.0,-999,-99.99,,,-99.99,,2013-01-19 13:54:00,
2013-01-19 09:03:00,32.0,-99.9,30.50,West,261,9.0,10.0,-999,-99.99,,,-99.99,,2013-01-19 14:03:00,
2013-01-19 09:13:00,32.0,-99.9,29.81,West,261,9.0,10.0,-999,-99.99,,,-99.99,,2013-01-19 14:13:00,
2013-01-19 09:23:00,32.0,-99.9,30.50,WNW,295,10.0,16.0,-999,-99.99,,,-99.99,,2013-01-19 14:23:00,
2013-01-19 09:34:00,32.0,-99.9,29.81,WNW,295,10.0,16.0,-999,-99.99,,,-99.99,,2013-01-19 14:34:00,
2013-01-19 09:43:00,32.0,-99.9,29.81,WNW,295,10.0,16.0,-999,-99.99,,,-99.99,,2013-01-19 14:43:00,
2013-01-19 09:54:00,31.0,-99.9,29.81,WSW,253,9.0,12.0,-999,-99.99,,,-99.99,,2013-01-19 14:54:00,
2013-01-19 10:03:00,31.0,-99.9,30.49,WSW,238,5.0,7.0,-999,-99.99,,,-99.99,,2013-01-19 15:03:00,
2013-01-19 10:13:00,31.0,-99.9,29.80,WSW,238,5.0,7.0,-999,-99.99,,,-99.99,,2013-01-19 15:13:00,
2013-01-19 10:23:00,31.0,-99.9,30.50,WSW,253,9.0,12.0,-999,-99.99,,,-99.99,,2013-01-19 15:23:00,
2013-01-19 10:34:00,31.0,-99.9,29.81,WSW,253,9.0,12.0,-999,-99.99,,,-99.99,,2013-01-19 15:34:00,
2013-01-19 10:43:00,31.0,-99.9,29.81,WSW,253,9.0,12.0,-999,-99.99,,,-99.99,,2013-01-19 15:43:00,
2013-01-19 10:53:00,32.0,-99.9,29.79,South,173,1.0,9.0,-999,-99.99,,,-99.99,,2013-01-19 15:53:00,
2013-01-19 11:04:00,32.0,-99.9,30.46,ESE,116,1.0,2.0,-999,-99.99,,,-99.99,,2013-01-19 16:04:00,
2013-01-19 11:13:00,32.0,-99.9,29.77,ESE,116,1.0,2.0,-999,-99.99,,,-99.99,,2013-01-19 16:13:00,
2013-01-19 11:23:00,32.0,-99.9,29.77,ESE,116,1.0,2.0,-999,-99.99,,,-99.99,,2013-01-19 16:23:00,
2013-01-19 11:34:00,32.0,-99.9,29.79,South,173,1.0,9.0,-999,-99.99,,,-99.99,,2013-01-19 16:34:00,
2013-01-19 11:43:00,32.0,-99.9,29.79,South,173,1.0,9.0,-999,-99.99,,,-99.99,,2013-01-19 16:43:00,
2013-01-19 11:54:00,32.0,-99.9,29.79,South,173,1.0,9.0,-999,-99.99,,,-99.99,,2013-01-19 16:54:00,
2013-01-19 12:03:00,32.0,-99.9,30.44,SSW,204,6.0,11.0,-999,-99.99,,,-99.99,,2013-01-19 17:03:00,
2013-01-19 12:29:00,32.0,-99.9,29.75,SSW,204,6.0,11.0,-999,-99.99,,,-99.99,,2013-01-19 17:29:00,
2013-01-19 12:38:00,32.0,-99.9,29.73,SSW,198,5.0,14.0,-999,-99.99,,,-99.99,,2013-01-19 17:38:00,
2013-01-19 12:50:00,32.0,-99.9,29.73,SSW,198,5.0,14.0,-999,-99.99,,,-99.99,,2013-01-19 17:50:00,
2013-01-19 12:55:00,32.0,-99.9,30.42,SSW,198,5.0,14.0,-999,-99.99,,,-99.99,,2013-01-19 17:55:00,
2013-01-19 13:13:00,33.0,-99.9,29.73,South,191,5.0,12.0,-999,-99.99,,,-99.99,,2013-01-19 18:13:00,
2013-01-19 13:29:00,34.0,-99.9,30.35,SSW,192,6.0,14.0,-999,-99.99,,,-99.99,,2013-01-19 18:29:00,
2013-01-19 13:39:00,34.0,-99.9,29.66,SSW,192,6.0,14.0,-999,-99.99,,,-99.99,,2013-01-19 18:39:00,
2013-01-19 13:40:00,35.0,-99.9,29.63,SSW,195,9.0,15.0,-999,-99.99,,,-99.99,,2013-01-19 18:40:00,
2013-01-19 13:48:00,34.0,-99.9,30.35,SSW,192,6.0,14.0,-999,-99.99,,,-99.99,,2013-01-19 18:48:00,
2013-01-19 14:04:00,34.0,-99.9,29.66,SSW,192,6.0,14.0,-999,-99.99,,,-99.99,,2013-01-19 19:04:00,
2013-01-19 14:23:00,35.0,-99.9,29.63,SSW,195,9.0,15.0,-999,-99.99,,,-99.99,,2013-01-19 19:23:00,
2013-01-19 14:32:00,35.0,-99.9,29.63,SSW,195,9.0,15.0,-999,-99.99,,,-99.99,,2013-01-19 19:32:00,
2013-01-19 15:13:00,36.0,-99.9,29.58,SSW,205,6.0,17.0,-999,-99.99,,,-99.99,,2013-01-19 20:13:00,
2013-01-19 15:20:00,36.0,-99.9,29.58,SSW,205,6.0,17.0,-999,-99.99,,,-99.99,,2013-01-19 20:20:00,
2013-01-19 15:28:00,36.0,-99.9,30.27,SSW,203,7.0,16.0,-999,-99.99,,,-99.99,,2013-01-19 20:28:00,
2013-01-19 15:40:00,36.0,-99.9,29.58,SSW,203,7.0,16.0,-999,-99.99,,,-99.99,,2013-01-19 20:40:00,
2013-01-19 15:50:00,36.0,-99.9,29.57,SSW,200,3.0,17.0,-999,-99.99,,,-99.99,,2013-01-19 20:50:00,
2013-01-19 16:00:00,36.0,-99.9,29.57,SSW,200,3.0,17.0,-999,-99.99,,,-99.99,,2013-01-19 21:00:00,
2013-01-19 16:15:00,36.0,-99.9,29.54,SSW,192,7.0,10.0,-999,-99.99,,,-99.99,,2013-01-19 21:15:00,
2013-01-19 16:48:00,36.0,-99.9,30.26,SSW,200,3.0,17.0,-999,-99.99,,,-99.99,,2013-01-19 21:48:00,
2013-01-19 16:55:00,36.0,-99.9,29.57,SSW,200,3.0,17.0,-999,-99.99,,,-99.99,,2013-01-19 21:55:00,
2013-01-19 17:03:00,36.0,-99.9,29.57,SSW,200,3.0,17.0,-999,-99.99,,,-99.99,,2013-01-19 22:03:00,
2013-01-19 17:16:00,37.0,-99.9,30.22,SW,218,8.0,18.0,-999,-99.99,,,-99.99,,2013-01-19 22:16:00,
2013-01-19 17:29:00,37.0,-99.9,29.53,SW,218,8.0,18.0,-999,-99.99,,,-99.99,,2013-01-19 22:29:00,
2013-01-19 17:49:00,38.0,-99.9,30.20,SW,227,15.0,26.0,-999,-99.99,,,-99.99,,2013-01-19 22:49:00,
2013-01-19 17:59:00,38.0,-99.9,29.51,SW,227,15.0,26.0,-999,-99.99,,,-99.99,,2013-01-19 22:59:00,
2013-01-19 18:14:00,38.0,-99.9,30.19,SW,230,19.0,28.0,-999,-99.99,,,-99.99,,2013-01-19 23:14:00,
2013-01-19 18:29:00,38.0,-99.9,29.50,SW,230,19.0,28.0,-999,-99.99,,,-99.99,,2013-01-19 23:29:00,
2013-01-19 18:35:00,38.0,-99.9,30.18,SW,230,19.0,29.0,-999,-99.99,,,-99.99,,2013-01-19 23:35:00,
2013-01-19 18:40:00,38.0,-99.9,29.48,SW,228,20.0,28.0,-999,-99.99,,,-99.99,,2013-01-19 23:40:00,
2013-01-19 18:53:00,38.0,-99.9,29.49,SW,230,19.0,29.0,-999,-99.99,,,-99.99,,2013-01-19 23:53:00,
2013-01-19 19:08:00,38.0,-99.9,29.49,SW,230,19.0,29.0,-999,-99.99,,,-99.99,,2013-01-20 00:08:00,
2013-01-19 19:17:00,38.0,-99.9,29.48,SW,228,20.0,28.0,-999,-99.99,,,-99.99,,2013-01-20 00:17:00,
2013-01-19 19:26:00,38.0,-99.9,29.48,SW,228,20.0,28.0,-999,-99.99,,,-99.99,,2013-01-20 00:26:00,
2013-01-19 19:39:00,38.0,-99.9,29.48,SW,228,20.0,28.0,-999,-99.99,,,-99.99,,2013-01-20 00:39:00,
2013-01-19 20:05:00,38.0,-99.9,29.46,SW,236,23.0,32.0,-999,-99.99,,,-99.99,,2013-01-20 01:05:00,
2013-01-19 20:22:00,38.0,-99.9,29.46,SW,236,23.0,32.0,-999,-99.99,,,-99.99,,2013-01-20 01:22:00,
2013-01-19 20:28:00,38.0,-99.9,29.46,SW,236,23.0,32.0,-999,-99.99,,,-99.99,,2013-01-20 01:28:00,
2013-01-19 20:39:00,39.0,-99.9,30.14,WSW,245,32.0,64.0,-999,-99.99,,,-99.99,,2013-01-20 01:39:00,
2013-01-19 20:53:00,39.0,-99.9,29.45,WSW,245,32.0,64.0,-999,-99.99,,,-99.99,,2013-01-20 01:53:00,
2013-01-19 21:05:00,39.0,-99.9,29.45,WSW,245,32.0,64.0,-999,-99.99,,,-99.99,,2013-01-20 02:05:00,
2013-01-19 21:16:00,34.0,-99.9,29.47,West,275,35.0,49.0,-999,-99.99,,,-99.99,,2013-01-20 02:16:00,
2013-01-19 21:28:00,34.0,-99.9,29.47,West,275,35.0,49.0,-999,-99.99,,,-99.99,,2013-01-20 02:28:00,
2013-01-19 21:38:00,36.0,-99.9,30.14,West,276,38.0,46.0,-999,-99.99,,,-99.99,,2013-01-20 02:38:00,
2013-01-19 22:00:00,36.0,-99.9,30.14,West,276,38.0,46.0,-999,-99.99,,,-99.99,,2013-01-20 03:00:00,
2013-01-19 22:09:00,36.0,-99.9,30.13,WNW,287,33.0,41.0,-999,-99.99,,,-99.99,,2013-01-20 03:09:00,
2013-01-19 22:15:00,36.0,-99.9,29.44,WNW,287,33.0,41.0,-999,-99.99,,,-99.99,,2013-01-20 03:15:00,
2013-01-19 22:27:00,36.0,-99.9,30.14,West,279,33.0,0.0,-999,-99.99,,,-99.99,,2013-01-20 03:27:00,
2013-01-19 22:40:00,36.0,-99.9,29.45,West,279,33.0,0.0,-999,-99.99,,,-99.99,,2013-01-20 03:40:00,
2013-01-19 22:48:00,36.0,-99.9,29.45,West,279,33.0,0.0,-999,-99.99,,,-99.99,,2013-01-20 03:48:00,
2013-01-19 22:59:00,36.0,-99.9,29.45,WNW,282,32.0,33.0,-999,-99.99,,,-99.99,,2013-01-20 03:59:00,
2013-01-19 23:05:00,34.0,-99.9,30.14,WNW,299,39.0,48.0,-999,-99.99,,,-99.99,,2013-01-20 04:05:00,
2013-01-19 23:16:00,34.0,-99.9,29.45,WNW,299,39.0,48.0,-999,-99.99,,,-99.99,,2013-01-20 04:16:00,
2013-01-19 23:28:00,30.0,-99.9,30.16,NW,314,37.0,0.0,-999,-99.99,,,-99.99,,2013-01-20 04:28:00,
2013-01-19 23:38:00,30.0,-99.9,29.47,NW,314,37.0,0.0,-999,-99.99,,,-99.99,,2013-01-20 04:38:00,
2013-01-19 23:45:00,30.0,-99.9,29.47,NW,314,37.0,0.0,-999,-99.99,,,-99.99,,2013-01-20 04:45:00,